Home   Weather   Wilmington   Past weeks

Flag for USA Past Weather in Wilmington, North Carolina, USA — Yesterday and Last 2 Weeks

Now
68 °F

Mostly cloudy.


Feels Like: 68 °F
Forecast: 53 / 66 °F
Wind: 8 mph from South

Location: New Hanover International Airport

Current Time: Jan 21, 2017 at 2:50:06 pm

Latest Report: Jan 21, 2017 at 2:29 pm


Visibility: 10 mi

Pressure: 29.81 "Hg

Humidity: 84%

Dew Point: 63 °F

Location of WilmingtonLocation

Past Weather in Wilmington — Graph

°F

Wilmington Temperature Yesterday

Maximum temperature yesterday: 74 °F (at 2:53 pm)
Minimum temperature yesterday: 43 °F (at 12:53 am)
Average temperature yesterday: 59 °F

High & Low Weather Summary for the Past Weeks

 TemperatureHumidityPressure
High76 °F (Jan 13, 3:53 pm)100% (Jan 7, 2:53 am)30.84 "Hg (Jan 7, 2:53 am)
Low17 °F (Jan 9, 1:53 am)26% (Jan 9, 2:53 pm)29.81 "Hg (Jan 20, 3:53 pm)
Average49 °F81%30.28 "Hg
* Reported Jan 6 12:53 pm — Jan 21 12:53 pm, Wilmington, Weather by CustomWeather, © 2017

Note: Actual official high and low records may vary slightly from our data, if they occured in-between our weather recording intervals... More about our weather records

Advertising

Wilmington Weather History for the Previous 24 Hours

Scroll right to see more
 ConditionsComfort  
Time TempWeatherWind HumidityBarometerVisibility
12:53 pm
Sat, Jan 21
65 °FLow clouds.5 mph87%29.85 "Hg9 mi
11:53 am62 °FLow clouds.7 mph93%29.88 "Hg7 mi
11:41 am62 °FMostly cloudy.7 mph93%29.89 "Hg8 mi
10:53 am60 °FScattered clouds.8 mph96%29.91 "Hg10 mi
9:53 am58 °FPartly sunny.7 mph97%29.92 "Hg7 mi
8:53 am56 °FFog.5 mph100%29.92 "Hg5 mi
7:53 am55 °FFog.3 mph100%29.92 "Hg3 mi
6:53 am53 °FFog.No wind100%29.91 "Hg4 mi
6:00 am54 °FFog.No wind100%29.90 "Hg4 mi
5:27 am54 °FFog.5 mph100%29.90 "Hg3 mi
5:18 am53 °FFog.5 mph100%29.90 "Hg1 mi
5:02 am53 °FFog.3 mph100%29.90 "Hg1 mi
4:29 am51 °FFog.3 mph100%29.91 "Hg0 mi
3:53 am51 °FFog.No wind100%29.91 "Hg0 mi
3:23 am51 °FFog.No wind100%29.92 "Hg0 mi
3:02 am51 °FFog.No wind100%29.92 "Hg0 mi
2:06 am51 °FFog.3 mph100%29.92 "Hg0 mi
1:53 am50 °FFog.6 mph100%29.91 "Hg0 mi
1:32 am52 °FFog.No wind100%29.91 "Hg0 mi
1:22 am52 °FFog.No wind100%29.91 "Hg1 mi
1:01 am52 °FFog.No wind100%29.90 "Hg0 mi
12:53 am52 °FFog.No wind100%29.90 "Hg0 mi
12:15 am53 °FFog.No wind100%29.91 "Hg0 mi
12:05 am54 °FFog.No wind100%29.91 "Hg1 mi
11:58 pm
Fri, Jan 20
54 °FFog.No wind100%29.91 "Hg1 mi
11:36 pm54 °FFog.No wind100%29.92 "Hg1 mi
11:13 pm53 °FFog.No wind100%29.92 "Hg0 mi
10:55 pm53 °FFog.No wind100%29.92 "Hg1 mi
10:37 pm55 °FFog.No wind100%29.91 "Hg1 mi
9:49 pm56 °FFog.No wind100%29.90 "Hg0 mi
9:37 pm56 °FFog.No wind100%29.90 "Hg1 mi
8:53 pm59 °FClear.No wind100%29.89 "Hg7 mi
7:53 pm62 °FClear.No wind96%29.87 "Hg10 mi
6:53 pm64 °FPassing clouds.5 mph87%29.87 "Hg10 mi
5:53 pm66 °FClear.5 mph81%29.84 "Hg10 mi
4:53 pm70 °FPassing clouds.9 mph73%29.83 "Hg10 mi
3:53 pm73 °FBroken clouds.8 mph66%29.81 "Hg10 mi
2:53 pm74 °FPassing clouds.13 mph64%29.82 "Hg10 mi
Weather by CustomWeather, © 2017

See weather overviewHow to use our weather pages